Regional Weather Roundup
Issued by NWS

Home | Current Version | Previous Version | Text Only | Print | Product List | Glossary Off
Versions: 1 2 3 4 5 6 7 8 9 10 11 12 13 14 15 16 17 18 19 20 21 22 23 24 25 26 27 28 29 30 31 32 33 34 35 36 37 38 39 40 41 42 43 44 45 46 47 48 49 50

000
ASUS43 KDTX 220001
RWRMI
MICHIGAN HOURLY REGIONAL WEATHER ROUNDUP
NATIONAL WEATHER SERVICE DETROIT/PONTIAC MI
700 PM EST SAT JAN 21 2017

NOTE: "FAIR" INDICATES FEW OR NO CLOUDS BELOW 12,000 FEET WITH NO
SIGNIFICANT WEATHER AND/OR OBSTRUCTION TO VISIBILITY.

MIZ047>049-052>055-059>063-066>070-074>076-081>083-220100-
SOUTHEAST LOWER MICHIGAN

CITY           SKY/WX    TMP DP  RH WIND       PRES   REMARKS
ADRIAN         CLEAR     50  50 100 S7        29.61R
6HR MIN TEMP:  50; 6HR MAX TEMP:  57;

ALMA           FOG       43  42  98 N5        29.57S VSB<1/4
6HR MIN TEMP:  43; 6HR MAX TEMP:  49;

ANN ARBOR      CLEAR     51  50  96 SE7       29.60R
BAD AXE        FOG       43  43 100 SE5       29.63R VSB 1/4
6HR MIN TEMP:  42; 6HR MAX TEMP:  44;

CARO           FOG       46  46 100 SE7       29.59S VSB 3/4
DETROIT CITY   CLOUDY    49  49 100 S3        29.63R
6HR MIN TEMP:  49; 6HR MAX TEMP:  57;

DETROIT        CLEAR     51  49  92 SE6       29.62R
6HR MIN TEMP:  51; 6HR MAX TEMP:  59;

FLINT          CLEAR     46  45  96 SE6       29.59R FOG
6HR MIN TEMP:  46; 6HR MAX TEMP:  54;

GROSSE ILE     FOG       39  38  99 S5        29.62R VSB 1/4
6HR MIN TEMP:  39; 6HR MAX TEMP:  46;

HILLSDALE      CLEAR     50  48  93 SE7       29.57S
HOWELL         CLEAR     49  47  90 SE9       29.58R

CITY           SKY/WX    TMP DP  RH WIND       PRES   REMARKS
JACKSON        CLEAR     52  48  86 S9        29.58R
6HR MIN TEMP:  52; 6HR MAX TEMP:  59;

LAMBERTVILLE   CLEAR     56  52  86 SE5       29.61R
6HR MIN TEMP:  56; 6HR MAX TEMP:  61;

LANSING        CLOUDY    52  46  80 S9        29.57R
6HR MIN TEMP:  50; 6HR MAX TEMP:  56;

LAPEER         FOG       45  45  99 SE3       29.61S VSB 1/4
6HR MIN TEMP:  45; 6HR MAX TEMP:  50;

MASON          CLEAR     51  49  93 SE9       29.57R
6HR MIN TEMP:  49; 6HR MAX TEMP:  56;

MONROE         CLEAR     50  50  99 S8        29.61R
6HR MIN TEMP:  50; 6HR MAX TEMP:  58;

MT. CLEMENS    FOG       41  41 100 E3        29.61S VSB 1/16
6HR MIN TEMP:  38; 6HR MAX TEMP:  46;

PONTIAC        PTCLDY    47  45  93 SE6       29.60R FOG
6HR MIN TEMP:  47; 6HR MAX TEMP:  51;

PORT HOPE        N/A     37  37 100 SE3       29.62R
6HR MIN TEMP:  36; 6HR MAX TEMP:  44;

PORT HURON     MOCLDY    46  46 100 SE3       29.64S FOG
TRI CITIES     FOG       45  45 100 E6        29.58R VSB 1/16
6HR MIN TEMP:  45; 6HR MAX TEMP:  48;

MIDLAND        FOG       43  42  96 E5        29.57S VSB 1/4
6HR MIN TEMP:  42; 6HR MAX TEMP:  44;

TROY           CLEAR     50  48  93 CALM      29.64R FOG
SAGINAW HB     FOG       46  45  93 SE6       29.57S VSB 1/4
$$
MIZ043>046-050>051-056>058-064>065-071>073-077>080-220100-
SOUTHWEST LOWER MICHIGAN

CITY           SKY/WX    TMP DP  RH WIND       PRES   REMARKS
BATTLE CREEK   CLEAR     53  50  89 S9        29.56R
6HR MIN TEMP:  52; 6HR MAX TEMP:  60;

BENTON HARBOR  PTCLDY    56  48  74 S7        29.54R
6HR MIN TEMP:  56; 6HR MAX TEMP:  62;

BIG RAPIDS     FOG       41  40  97 CALM      29.54S VSB 1/4
6HR MIN TEMP:  41; 6HR MAX TEMP:  44;

COLDWATER      CLEAR     53  51  95 SE6       29.56S
6HR MIN TEMP:  53; 6HR MAX TEMP:  60;

FREMONT        FOG       47  47 100 E6        29.53R VSB<1/4
HOLLAND        PTCLDY    52  46  80 SW8       29.54R
6HR MIN TEMP:  52; 6HR MAX TEMP:  62;

GRAND RAPIDS   PTCLDY    49  45  86 S7        29.54R
6HR MIN TEMP:  49; 6HR MAX TEMP:  61;

IONIA          FAIR      50  46  86 S7        29.55R
6HR MIN TEMP:  47; 6HR MAX TEMP:  55;

KALAMAZOO      PTCLDY    53  47  79 S5        29.56R
6HR MIN TEMP:  52; 6HR MAX TEMP:  61;

LUDINGTON      FOG       47  47 100 SE6       29.51S VSB 1/2
6HR MIN TEMP:  44; 6HR MAX TEMP:  48;

MARSHALL       CLEAR     54  51  90 SE7       29.56R
6HR MIN TEMP:  53; 6HR MAX TEMP:  60;

MOUNT PLEASANT FOG       44  44  99 CALM      29.56S VSB 1/4
6HR MIN TEMP:  41; 6HR MAX TEMP:  46;

MUSKEGON       MOCLDY    53  47  79 SW14      29.53R
6HR MIN TEMP:  52; 6HR MAX TEMP:  62;

SOUTH HAVEN    MOCLDY    55  48  77 W3        29.54R
$$
MIZ016>042-220100-
NORTHERN LOWER MICHIGAN

CITY           SKY/WX    TMP DP  RH WIND       PRES   REMARKS
ALPENA         FOG       37  36  96 SE8       29.63R VSB 1/2 WCI  31
6HR MIN TEMP:  36; 6HR MAX TEMP:  38;

BEAVER ISLAND  FOG       35  35 100 E8        29.55R VSB 3/4 WCI  29
6HR MIN TEMP:  35; 6HR MAX TEMP:  36;

BELLAIRE       CLOUDY    43  41  95 CALM      29.55R
6HR MIN TEMP:  39; 6HR MAX TEMP:  46;

CADILLAC       FOG       39  38  97 SE8       29.53S VSB 1/4 WCI  34
CHARLEVOIX     CLOUDY    39  39 100 E3        29.57R
FRANKFORT      CLOUDY    45  44  97 SE8       29.52R
GAYLORD        FOG       41  38  89 SE12      29.54S VSB 1/4
6HR MIN TEMP:  40; 6HR MAX TEMP:  42;

GRAYLING       FOG       39  38  99 SW3       29.58R VSB 1/2
6HR MIN TEMP:  38; 6HR MAX TEMP:  41;

HARBOR SPRINGS CLOUDY    37  37 100 E8        29.56R FOG     WCI  31
HOUGHTON LAKE  FOG       41  41 100 S5        29.57R VSB 1/2
6HR MIN TEMP:  39; 6HR MAX TEMP:  41;

MANISTEE       CLOUDY    45  45 100 SE6       29.52R FOG
OSCODA         FOG       39  38  97 SE6       29.61F VSB 1/4 WCI  35
6HR MIN TEMP:  37; 6HR MAX TEMP:  41;

PELLSTON       LGT RAIN  37  36  96 SE9       29.56F VSB 1/2 WCI  30
6HR MIN TEMP:  36; 6HR MAX TEMP:  39; 6HR PCP: TRACE;

ROGERS CITY    SNOW      37  36  96 SE6       29.62R VSB 1/4 WCI  33
TRAVERSE CITY  CLOUDY    44  42  93 VRB5      29.53R
6HR MIN TEMP:  43; 6HR MAX TEMP:  47;

$$
MIZ007>008-015-220100-
EASTERN UPPER MICHIGAN

CITY           SKY/WX    TMP DP  RH WIND       PRES   REMARKS
KINROSS        MIX PCPN  34  34 100 E17G26    29.59F VSB 1/2 WCI  23
6HR MIN TEMP:  34; 6HR MAX TEMP:  35; 6HR PCP: TRACE;

MACKINAC ISLAN SNOW      35  35 100 E20G29    29.57F VSB 1/4 WCI  24
6HR MIN TEMP:  33; 6HR MAX TEMP:  35;

NEWBERRY       FOG       34  33  96 E10       29.55S VSB 3/4 WCI  26
6HR MIN TEMP:  34; 6HR MAX TEMP:  35;

S. S. MARIE    CLOUDY    36  35  96 E8        29.60F FOG     WCI  30
6HR MIN TEMP:  34; 6HR MAX TEMP:  36;

MUNISING         N/A     37  36  96 CALM      29.51F
6HR MIN TEMP:  36; 6HR MAX TEMP:  38;

$$
MIZ004>006-011>014-085-220100-
CENTRAL UPPER MICHIGAN

CITY           SKY/WX    TMP DP  RH WIND       PRES   REMARKS
MANISTIQUE     CLOUDY    35  35  98 E14G21    29.53S FOG     WCI  26
6HR MIN TEMP:  33; 6HR MAX TEMP:  35;

ESCANABA       MIX PCPN  36  35  96 NE6       29.51S FOG     WCI  31
6HR MIN TEMP:  35; 6HR MAX TEMP:  36; 6HR PCP:  0.01;

SAWYER-GWINN   FOG       34  34 100 CALM      29.51R VSB 1/2
$$
MIZ001>003-009>011-084-220100-
WESTERN UPPER MICHIGAN

CITY           SKY/WX    TMP DP  RH WIND       PRES   REMARKS
IRON MOUNTAIN  CLOUDY    35  33  92 CALM      29.47F FOG
6HR MIN TEMP:  35; 6HR MAX TEMP:  36; 6HR PCP: TRACE;

HOUGHTON       LGT RAIN  34  32  92 E12       29.51R VSB 1/4 WCI  25
6HR MIN TEMP:  34; 6HR MAX TEMP:  35; 6HR PCP:  0.02;

COPPER HARBOR    N/A     36  35  96 CALM      29.53S
6HR MIN TEMP:  35; 6HR MAX TEMP:  37;

IRONWOOD       CLOUDY    36  35  96 CALM      29.47S FOG
6HR MIN TEMP:  36; 6HR MAX TEMP:  38;

$$

ABBREVIATIONS USED IN REMARKS
   TC - TEMPERATURE IN CELSIUS
  WCI - WIND CHILL INDEX
   HX - HEAT INDEX
  VSB - VISIBILITY





USA.gov is the U.S. government's official web portal to all federal, state and local government web resources and services.